Date String (YYYY-MM-DD hh:mm:ss) UTC,Instrument flags,Ambient pressure (hPa),Sample flow (lpm),Bypass flow (lpm),Sample temperature (°C),Ambient temperature (°C),ASC tube jacket temperature (°C),LED temperature (°C),Box temperature (°C),Sample RH (%),Span deviation,Mass concentration (μg/m³),Mass concentration (μg/m³),Mass concentration (μg/m³)
DateTimeUTC,F1_M11,P_M11,Q1_M11,Q2_M11,T1_M11,T2_M11,T3_M11,T4_M11,T5_M11,U1_M11,ZSPAN_M11,X0_M11,X2_M11,X1_M11
2022-10-12 13:00:00,,0826.5,5.00,0.00,26.4,24.3,00.0,35.4,28.1,19.6,0001.2,0015.21,0007.08,0005.76
2022-10-12 13:01:00,,0826.5,5.00,0.00,26.4,24.3,00.0,35.4,28.1,19.7,0001.0,0013.99,0007.09,0005.77
2022-10-12 13:02:00,,0826.5,5.01,0.00,26.3,24.2,00.0,35.3,28.0,19.8,0001.4,0013.79,0007.07,0005.76
2022-10-12 13:03:00,,0826.5,4.99,0.00,26.3,24.3,00.0,35.3,28.1,19.7,0001.3,0013.86,0007.02,0005.75
2022-10-12 13:04:00,,0826.5,5.01,0.00,26.3,24.4,00.0,35.3,28.1,19.5,0001.6,0013.76,0007.03,0005.76
2022-10-12 13:05:00,,0826.5,5.00,0.00,26.3,24.4,00.0,35.3,28.1,19.4,0001.9,0014.05,0007.02,0005.75
2022-10-12 13:06:00,,0826.5,4.99,0.00,26.3,24.5,00.0,35.3,28.0,19.0,0001.7,0014.32,0006.99,0005.74
2022-10-12 13:07:00,,0826.5,5.01,0.00,26.3,24.5,00.0,35.2,28.1,18.7,0001.8,0014.40,0006.93,0005.74
2022-10-12 13:08:00,,0826.5,5.00,0.00,26.3,24.6,00.0,35.2,28.1,18.6,0001.8,0014.30,0006.91,0005.74
2022-10-12 13:09:00,,0826.5,5.00,0.00,26.3,24.6,00.0,35.2,28.1,18.6,0001.6,0015.98,0006.91,0005.73
2022-10-12 13:10:00,,0826.5,5.01,0.00,26.3,24.6,00.0,35.2,28.1,18.5,0001.4,0016.38,0006.90,0005.71
2022-10-12 13:11:00,,0826.5,4.99,0.00,26.3,24.6,00.0,35.2,28.1,18.5,0001.8,0016.89,0006.92,0005.69
2022-10-12 13:12:00,,0826.5,5.01,0.00,26.3,24.6,00.0,35.2,28.1,18.2,0002.2,0017.13,0006.90,0005.67
2022-10-12 13:13:00,,0826.6,5.01,0.00,26.3,24.6,00.0,35.2,28.1,17.9,0002.0,0016.66,0006.92,0005.68
2022-10-12 13:14:00,,0826.5,4.99,0.00,26.3,24.6,00.0,35.2,28.1,17.8,0001.7,0016.46,0006.91,0005.69
2022-10-12 13:15:00,,0826.5,5.01,0.00,26.3,24.5,00.0,35.1,28.1,17.6,0001.5,0016.41,0006.86,0005.69
2022-10-12 13:16:00,,0826.5,4.99,0.00,26.3,24.5,00.0,35.2,28.0,17.5,0001.5,0016.45,0006.85,0005.68
2022-10-12 13:17:00,,0826.4,5.01,0.00,26.2,24.4,00.0,35.1,28.0,17.3,0001.5,0016.60,0006.86,0005.68
2022-10-12 13:18:00,,0826.3,5.00,0.00,26.2,24.4,00.0,35.1,28.0,17.5,0001.5,0016.61,0006.96,0005.70
2022-10-12 13:19:00,,0826.4,5.00,0.00,26.2,24.4,00.0,35.1,28.0,17.8,0001.4,0016.50,0006.99,0005.69
2022-10-12 13:20:00,,0826.4,5.01,0.00,26.2,24.4,00.0,35.1,28.0,17.8,0001.4,0015.45,0007.01,0005.68
2022-10-12 13:21:00,,0826.4,4.99,0.00,26.2,24.4,00.0,35.1,28.0,17.9,0001.5,0015.17,0007.00,0005.69
2022-10-12 13:22:00,,0826.4,5.00,0.00,26.2,24.4,00.0,35.1,28.0,18.1,0001.5,0014.66,0007.01,0005.70
2022-10-12 13:23:00,,0826.4,5.01,0.00,26.2,24.4,00.0,35.1,27.9,18.1,0001.5,0014.43,0007.02,0005.71
2022-10-12 13:24:00,,0826.4,4.98,0.00,26.2,24.4,00.0,35.1,27.9,17.4,0001.1,0014.58,0007.03,0005.71
2022-10-12 13:25:00,,0826.5,5.01,0.00,26.2,24.3,00.0,35.0,27.9,17.3,0001.3,0014.94,0007.00,0005.69
2022-10-12 13:26:00,,0826.5,4.99,0.00,26.1,24.4,00.0,35.0,28.0,18.0,0001.3,0015.05,0006.98,0005.68
2022-10-12 13:27:00,,0826.4,5.00,0.00,26.1,24.4,00.0,35.0,28.0,17.9,0000.8,0015.30,0006.98,0005.69
2022-10-12 13:28:00,,0826.4,5.01,0.00,26.1,24.4,00.0,35.0,28.0,17.3,0001.0,0015.64,0006.98,0005.69
2022-10-12 13:29:00,,0826.4,4.98,0.00,26.1,24.4,00.0,35.0,28.0,16.9,0000.6,0015.54,0006.90,0005.66
2022-10-12 13:30:00,,0826.5,5.01,0.00,26.1,24.4,00.0,35.0,28.0,17.7,0000.6,0016.39,0006.92,0005.66
2022-10-12 13:31:00,,0826.5,4.99,0.00,26.1,24.5,00.0,35.0,28.0,18.3,0000.9,0016.10,0006.93,0005.68
2022-10-12 13:32:00,,0826.5,5.01,0.00,26.1,24.5,00.0,35.0,28.0,18.1,0000.8,0017.40,0007.00,0005.68
2022-10-12 13:33:00,,0826.5,4.99,0.00,26.2,24.6,00.0,35.0,28.1,18.0,0000.9,0018.08,0007.00,0005.67
2022-10-12 13:34:00,,0826.5,5.00,0.00,26.2,24.6,00.0,35.0,28.1,18.4,0000.4,0018.13,0007.05,0005.67
2022-10-12 13:35:00,,0826.5,5.00,0.00,26.2,24.6,00.0,35.0,28.1,18.4,0000.5,0018.36,0007.08,0005.68
2022-10-12 13:36:00,,0826.5,4.99,0.00,26.2,24.6,00.0,35.0,28.1,18.3,0000.8,0018.07,0007.12,0005.69
2022-10-12 13:37:00,,0826.5,5.00,0.00,26.2,24.7,00.0,35.0,28.1,18.4,0001.0,0018.20,0007.20,0005.70
2022-10-12 13:38:00,,0826.5,4.98,0.00,26.2,24.7,00.0,35.0,28.1,18.6,0001.4,0017.74,0007.20,0005.70
2022-10-12 13:39:00,,0826.5,5.01,0.00,26.2,24.7,00.0,35.0,28.1,18.9,0001.3,0016.89,0007.23,0005.71
2022-10-12 13:40:00,,0826.5,5.01,0.00,26.2,24.7,00.0,35.0,28.2,19.1,0001.2,0017.13,0007.26,0005.73
2022-10-12 13:41:00,,0826.5,5.00,0.00,26.2,24.7,00.0,35.0,28.2,19.1,0001.2,0016.54,0007.21,0005.74
2022-10-12 13:42:00,,0826.5,5.01,0.00,26.2,24.7,00.0,35.0,28.2,19.2,0001.0,0016.53,0007.20,0005.75
2022-10-12 13:43:00,,0826.5,5.01,0.00,26.2,24.8,00.0,35.0,28.2,19.2,0001.1,0015.33,0007.21,0005.77
2022-10-12 13:44:00,,0826.7,5.01,0.00,26.2,24.8,00.0,35.0,28.2,19.1,0000.9,0014.98,0007.24,0005.81
2022-10-12 13:45:00,,0826.7,4.99,0.00,26.3,24.8,00.0,35.0,28.2,19.1,0001.1,0015.28,0007.23,0005.83
2022-10-12 13:46:00,,0826.6,5.01,0.00,26.3,24.8,00.0,35.0,28.2,19.0,0001.1,0014.97,0007.18,0005.84
2022-10-12 13:47:00,,0826.6,5.00,0.00,26.3,24.8,00.0,35.0,28.2,19.1,0001.0,0014.91,0007.18,0005.86
2022-10-12 13:48:00,,0826.6,5.01,0.00,26.3,24.8,00.0,35.0,28.3,19.1,0000.6,0015.58,0007.19,0005.88
2022-10-12 13:49:00,,0826.6,5.00,0.00,26.3,24.9,00.0,35.0,28.3,19.2,0000.2,0016.65,0007.19,0005.89
2022-10-12 13:50:00,,0826.6,4.99,0.00,26.3,24.9,00.0,35.0,28.3,19.3,0000.3,0017.41,0007.14,0005.90
2022-10-12 13:51:00,,0826.7,5.00,0.00,26.3,24.9,00.0,35.0,28.3,19.3,0001.2,0017.58,0007.14,0005.92
2022-10-12 13:52:00,,0826.7,5.00,0.00,26.3,24.9,00.0,35.0,28.3,19.2,0001.4,0017.51,0007.18,0005.95
2022-10-12 13:53:00,,0826.7,5.00,0.00,26.3,24.9,00.0,35.0,28.3,19.2,0001.2,0017.38,0007.21,0005.97
2022-10-12 13:54:00,,0826.7,5.01,0.00,26.3,24.9,00.0,35.0,28.3,19.3,0001.2,0016.84,0007.13,0005.98
2022-10-12 13:55:00,,0826.6,4.99,0.00,26.3,24.9,00.0,35.1,28.4,19.3,0001.6,0016.53,0007.09,0005.98
2022-10-12 13:56:00,,0826.6,5.00,0.00,26.4,24.9,00.0,35.1,28.4,19.2,0001.5,0016.69,0007.08,0005.99
2022-10-12 13:57:00,,0826.7,5.00,0.00,26.4,24.9,00.0,35.1,28.4,19.1,0001.7,0016.82,0007.11,0005.99
2022-10-12 13:58:00,,0826.7,4.99,0.00,26.4,25.0,00.0,35.1,28.4,19.2,0002.0,0017.07,0007.14,0005.99
2022-10-12 13:59:00,,0826.7,4.99,0.00,26.4,25.0,00.0,35.1,28.4,19.5,0002.0,0017.39,0007.15,0005.99
